Location: Casteau
(50.5142°N, 4.0161°E)
Time: 05:12:41
(UTC+00:00)

Vanguard 1 Rocket - Pass Details

Date: 03 August 2021
Orbit: 650 x 4226 km, 34.3° (Epoch: 21 September)

Event Time Altitude Azimuth Distance (km) Brightness Sun altitude
Rises 14:14:57 0° 268° (W) 6,095 12.2 46.0°
Reaches altitude 10° 14:21:15 10° 252° (WSW) 4,310 11.8 45.2°
Maximum altitude 14:27:24 17° 217° (SW) 2,989 11.2 44.4°
Drops below altitude 10° 14:31:52 10° 179° (S) 2,955 10.5 43.8°
Sets 14:35:03 0° 158° (SSE) 3,542 10.5 43.4°
